Dubuque, IA

4:49 PM CDT on September 24, 2017 (GMT -0500)
Dubuque Regional

Weather History for KDBQ - January, 2007

Change the Weather History Date:

Monday, January 1, 2007

  Actual Average Record
Temperature  
Mean Temperature 32 °F 19 °F  
Max Temperature 40 °F 27 °F 63 °F (1897)
Min Temperature 24 °F 12 °F -15 °F (1974)
Degree Days  
Heating Degree Days 33 46  
Month to date heating degree days 33 46  
Since 1 July heating degree days 2616 2856  
Cooling Degree Days 0 0  
Month to date cooling degree days 0 0  
Year to date cooling degree days 0 0  
Moisture  
Dew Point 26 °F    
Average Humidity 72    
Maximum Humidity 89    
Minimum Humidity 55    
Precipitation  
Precipitation T in 0.04 in 2.58 in (1876)
Month to date precipitation T 0.04  
Year to date precipitation T 0.04  
Snow  
Snow T in 0.30 in - ()
Month to date snowfall T 0.3  
Since 1 July snowfall 1.3 14.9  
Snow Depth 0.00 in    
Sea Level Pressure  
Sea Level Pressure 29.99 in    
Wind  
Wind Speed 13 mph (NW)    
Max Wind Speed 23 mph    
Max Gust Speed 28 mph    
Visibility 9 miles    
Events      
T = Trace of Precipitation, MM = Missing Value Source: NWS Daily Summary

Daily Weather History Graph

Daily Weather History Graph

Search for Another Location

Airport or City:

Trip Planner

Search our weather history database for the weather conditions in past years. The results will help you decide how hot, cold, wet, or windy it might be!

Date:

Astronomy

Jan. 01, 2007 Rise Set
Actual Time 7:32 AM CST 4:40 PM CST
Civil Twilight 7:00 AM CST 5:12 PM CST
Nautical Twilight 6:25 AM CST 5:47 PM CST
Astronomical Twilight 5:50 AM CST 6:21 PM CST
Moon 2:34 PM CST (1/1) 6:02 AM CST (1/1)
Length of Visible Light 10h 12m
Length of Day
9h 08m
Waxing Gibbous, 96% of the Moon is Illuminated
Jan 1
Waxing Gibbous
Jan 3
Full
Jan 11
Last Quarter
Jan 18
New
Jan 25
First Quarter

Hourly Weather History & Observations

Time (CST) Temp. Windchill Dew Point Humidity Pressure Visibility Wind Dir Wind Speed Gust Speed Precip Events Conditions
12:04 AM 33.8 °F 22.8 °F 30.2 °F 87% 29.62 in 5.0 mi WNW 18.4 mph 24.2 mph N/A   Overcast
12:13 AM 33.8 °F 23.2 °F 30.2 °F 87% 29.62 in 7.0 mi WNW 17.3 mph - N/A   Overcast
12:20 AM 33.8 °F 23.5 °F 30.2 °F 87% 29.62 in 7.0 mi WNW 16.1 mph - N/A   Overcast
12:36 AM 33.8 °F 23.2 °F 30.2 °F 87% 29.63 in 6.0 mi WNW 17.3 mph 24.2 mph N/A   Overcast
12:50 AM 33.8 °F 23.2 °F 30.2 °F 87% 29.64 in 8.0 mi WNW 17.3 mph - N/A   Overcast
12:55 AM 33.1 °F 22.2 °F 28.9 °F 85% 29.66 in 8.0 mi WNW 17.3 mph - N/A   Overcast
1:55 AM 33.1 °F 21.2 °F 28.9 °F 85% 29.70 in 10.0 mi WNW 20.7 mph 25.3 mph 0.00 in   Overcast
2:55 AM 33.1 °F 22.2 °F 28.0 °F 82% 29.73 in 10.0 mi NW 17.3 mph - N/A   Overcast
3:03 AM 33.8 °F 23.2 °F 28.4 °F 81% 29.72 in 10.0 mi NW 17.3 mph 25.3 mph N/A   Overcast
3:55 AM 33.1 °F 21.9 °F 28.0 °F 82% 29.77 in 10.0 mi NW 18.4 mph - N/A   Overcast
4:55 AM 34.0 °F 23.0 °F 28.9 °F 82% 29.81 in 10.0 mi NNW 18.4 mph - N/A   Overcast
5:55 AM 34.0 °F 23.8 °F 28.9 °F 82% 29.85 in 10.0 mi NW 16.1 mph - N/A   Overcast
6:55 AM 33.1 °F 21.9 °F 28.0 °F 82% 29.90 in 10.0 mi NW 18.4 mph 24.2 mph N/A   Overcast
7:55 AM 33.1 °F 22.2 °F 28.0 °F 82% 29.96 in 10.0 mi NNW 17.3 mph - N/A   Overcast
8:55 AM 33.1 °F 23.0 °F 27.0 °F 78% 30.01 in 10.0 mi NW 15.0 mph - N/A   Overcast
9:50 AM 33.8 °F 23.2 °F 26.6 °F 75% 30.02 in 10.0 mi NNW 17.3 mph 25.3 mph N/A   Scattered Clouds
9:55 AM 33.1 °F 21.5 °F 25.0 °F 72% 30.06 in 10.0 mi NNW 19.6 mph 25.3 mph N/A   Partly Cloudy
10:55 AM 34.0 °F 22.4 °F 26.1 °F 73% 30.08 in 10.0 mi NNW 20.7 mph - N/A   Clear
11:55 AM 36.0 °F 25.0 °F 26.1 °F 67% 30.11 in 10.0 mi NNW 20.7 mph - N/A   Clear
12:55 PM 37.9 °F 28.9 °F 25.0 °F 60% 30.12 in 10.0 mi NNW 16.1 mph - N/A   Clear
1:55 PM 39.0 °F 30.3 °F 25.0 °F 57% 30.16 in 10.0 mi NW 16.1 mph - N/A   Clear
2:55 PM 39.0 °F 31.0 °F 25.0 °F 57% 30.20 in 10.0 mi NNW 13.8 mph - N/A   Clear
3:55 PM 37.0 °F 31.0 °F 24.1 °F 59% 30.24 in 10.0 mi NW 8.1 mph - N/A   Clear
4:55 PM 33.1 °F 27.7 °F 23.0 °F 66% 30.27 in 10.0 mi NW 5.8 mph - N/A   Clear
5:55 PM 30.0 °F 21.7 °F 23.0 °F 75% 30.28 in 10.0 mi WNW 9.2 mph - N/A   Clear
6:55 PM 28.0 °F 20.8 °F 24.1 °F 85% 30.31 in 10.0 mi WNW 6.9 mph - N/A   Clear
7:55 PM 28.0 °F 24.2 °F 24.1 °F 85% 30.32 in 10.0 mi West 3.5 mph - N/A   Clear
8:55 PM 27.0 °F 18.7 °F 21.9 °F 81% 30.33 in 10.0 mi WNW 8.1 mph - N/A   Clear
9:55 PM 26.1 °F - 21.0 °F 81% 30.34 in 10.0 mi Calm Calm - N/A   Clear
10:55 PM 26.1 °F 20.5 °F 21.9 °F 84% 30.35 in 10.0 mi SSW 4.6 mph - N/A   Clear
11:55 PM 25.0 °F - 21.9 °F 88% 30.35 in 10.0 mi Calm Calm - N/A   Clear